When you browse on this site, cookies collect data to enhance your experience and personalize the content and advertising you see.
Visit our Privacy Policy to learn more. By continuing to use the site, you agree to this use of cookies and data.
  • în România
  • Lista ţărilor
  • Pe 7 zile
  • Temperatura apei
  • Hartă satelitară
  • Meteo pe hartă
  • Widget-uri
  • user-avatar
    Intrare

    Meteo pe oră la Saint-Etienne

    Astăzi, 25 Iunie, Marţi

    Timp Temperatura Precipitaţii Vânt Presiune Umiditate
    00:00 +18°C° 0 mm 2 m/s 715 mmHg 65%
    01:00 +19°C° 0 mm 1 m/s 715 mmHg 66%
    02:00 +18°C° 0 mm 1 m/s 715 mmHg 68%
    03:00 +16°C° 0 mm 1 m/s 715 mmHg 69%
    04:00 +19°C° 0 mm 1 m/s 715 mmHg 69%
    05:00 +20°C° 0 mm 1 m/s 716 mmHg 68%
    06:00 +21°C° 0 mm 1 m/s 717 mmHg 68%
    07:00 +24°C° 0 mm 2 m/s 717 mmHg 60%
    08:00 +26°C° 0 mm 2 m/s 717 mmHg 52%
    09:00 +29°C° 0 mm 2 m/s 717 mmHg 44%
    10:00 +30°C° 0 mm 2 m/s 717 mmHg 40%
    11:00 +33°C° 0 mm 3 m/s 718 mmHg 37%
    12:00 +34°C° 0 mm 3 m/s 718 mmHg 33%
    13:00 +34°C° 0 mm 3 m/s 718 mmHg 35%
    14:00 +34°C° 0 mm 3 m/s 718 mmHg 37%
    15:00 +34°C° 0 mm 3 m/s 718 mmHg 38%
    16:00 +32°C° 0 mm 2 m/s 718 mmHg 45%
    17:00 +31°C° 0 mm 2 m/s 718 mmHg 51%
    18:00 +29°C° 0 mm 1 m/s 718 mmHg 57%
    19:00 +27°C° 0 mm 1 m/s 718 mmHg 59%
    20:00 +25°C° 0 mm 1 m/s 718 mmHg 61%
    21:00 +23°C° 0 mm 1 m/s 718 mmHg 63%
    22:00 +22°C° 0 mm 1 m/s 718 mmHg 64%
    23:00 +21°C° 0 mm 1 m/s 718 mmHg 64%

    Mâine, 26 Iunie, Miercuri

    Timp Temperatura Precipitaţii Vânt Presiune Umiditate
    00:00 +20°C° 0 mm 1 m/s 718 mmHg 65%
    01:00 +20°C° 0 mm 1 m/s 718 mmHg 65%
    02:00 +19°C° 0 mm 1 m/s 718 mmHg 65%
    03:00 +19°C° 0 mm 1 m/s 718 mmHg 65%
    04:00 +20°C° 0 mm 1 m/s 718 mmHg 65%
    05:00 +21°C° 0 mm 1 m/s 718 mmHg 66%
    06:00 +22°C° 0 mm 1 m/s 718 mmHg 66%
    07:00 +25°C° 0 mm 1 m/s 719 mmHg 59%
    08:00 +27°C° 0 mm 2 m/s 719 mmHg 52%
    09:00 +30°C° 0 mm 2 m/s 719 mmHg 45%
    10:00 +32°C° 0 mm 2 m/s 719 mmHg 40%
    11:00 +35°C° 0 mm 2 m/s 719 mmHg 35%
    12:00 +37°C° 0 mm 3 m/s 720 mmHg 30%
    13:00 +37°C° 0 mm 3 m/s 719 mmHg 32%
    14:00 +37°C° 0 mm 3 m/s 719 mmHg 33%
    15:00 +37°C° 0 mm 3 m/s 719 mmHg 35%
    16:00 +35°C° 0 mm 2 m/s 719 mmHg 43%
    17:00 +34°C° 0 mm 2 m/s 719 mmHg 51%
    18:00 +31°C° 0 mm 1 m/s 718 mmHg 60%
    19:00 +29°C° 0 mm 1 m/s 719 mmHg 59%
    20:00 +26°C° 0 mm 2 m/s 719 mmHg 59%
    21:00 +24°C° 0 mm 2 m/s 719 mmHg 59%
    22:00 +24°C° 0 mm 2 m/s 719 mmHg 57%
    23:00 +23°C° 0 mm 2 m/s 719 mmHg 56%

    Poimâine, 27 Iunie, Joi

    Timp Temperatura Precipitaţii Vânt Presiune Umiditate
    00:00 +21°C° 0 mm 2 m/s 719 mmHg 55%
    01:00 +22°C° 0 mm 1 m/s 718 mmHg 52%
    02:00 +22°C° 0 mm 1 m/s 718 mmHg 50%
    03:00 +21°C° 0 mm 1 m/s 718 mmHg 47%
    04:00 +22°C° 0 mm 1 m/s 718 mmHg 50%
    05:00 +23°C° 0 mm 1 m/s 718 mmHg 53%
    06:00 +24°C° 0 mm 1 m/s 718 mmHg 56%
    07:00 +27°C° 0 mm 1 m/s 719 mmHg 51%
    08:00 +30°C° 0 mm 1 m/s 719 mmHg 46%
    09:00 +32°C° 0 mm 1 m/s 719 mmHg 41%
    10:00 +33°C° 0 mm 1 m/s 719 mmHg 39%
    11:00 +34°C° 0 mm 1 m/s 719 mmHg 37%
    12:00 +36°C° 0 mm 2 m/s 719 mmHg 35%
    13:00 +37°C° 0 mm 2 m/s 718 mmHg 34%
    14:00 +37°C° 0 mm 2 m/s 718 mmHg 34%
    15:00 +36°C° 0 mm 1 m/s 718 mmHg 33%
    16:00 +35°C° 0 mm 1 m/s 717 mmHg 41%
    17:00 +33°C° 0 mm 1 m/s 717 mmHg 49%
    18:00 +32°C° 0 mm 1 m/s 717 mmHg 57%
    19:00 +29°C° 0 mm 1 m/s 717 mmHg 61%
    20:00 +27°C° 0 mm 1 m/s 717 mmHg 65%
    21:00 +25°C° 0 mm 1 m/s 717 mmHg 68%
    22:00 +24°C° 0 mm 1 m/s 717 mmHg 71%
    23:00 +24°C° 0 mm 1 m/s 717 mmHg 74%

    28 Iunie, Vineri

    Timp Temperatura Precipitaţii Vânt Presiune Umiditate
    00:00 +23°C° 0 mm 1 m/s 717 mmHg 77%
    01:00 +23°C° 0 mm 1 m/s 716 mmHg 79%
    02:00 +22°C° 0 mm 1 m/s 716 mmHg 81%
    03:00 +22°C° 0 mm 1 m/s 716 mmHg 84%
    04:00 +23°C° 0 mm 1 m/s 716 mmHg 81%
    05:00 +24°C° 0 mm 1 m/s 716 mmHg 79%
    06:00 +25°C° 0 mm 1 m/s 716 mmHg 76%
    07:00 +27°C° 0 mm 1 m/s 716 mmHg 70%
    08:00 +29°C° 0 mm 1 m/s 716 mmHg 63%
    09:00 +31°C° 0 mm 1 m/s 716 mmHg 57%
    10:00 +32°C° 0 mm 2 m/s 716 mmHg 53%
    11:00 +35°C° 0 mm 2 m/s 716 mmHg 48%
    12:00 +36°C° 0 mm 3 m/s 716 mmHg 44%
    13:00 +36°C° 0 mm 3 m/s 716 mmHg 43%
    14:00 +36°C° 0 mm 3 m/s 715 mmHg 42%
    15:00 +36°C° 0 mm 3 m/s 715 mmHg 42%
    16:00 +34°C° 0 mm 3 m/s 715 mmHg 49%
    17:00 +32°C° 0 mm 2 m/s 715 mmHg 56%
    18:00 +30°C° 0 mm 2 m/s 715 mmHg 62%
    19:00 +27°C° 0 mm 2 m/s 715 mmHg 65%
    20:00 +25°C° 0 mm 1 m/s 715 mmHg 67%
    21:00 +23°C° 0 mm 1 m/s 715 mmHg 70%
    22:00 +22°C° 0 mm 1 m/s 715 mmHg 70%
    23:00 +21°C° 0 mm 1 m/s 714 mmHg 69%

    29 Iunie, Sâmbătă

    Timp Temperatura Precipitaţii Vânt Presiune Umiditate
    00:00 +20°C° 0 mm 1 m/s 714 mmHg 69%
    01:00 +20°C° 0 mm 1 m/s 714 mmHg 70%
    02:00 +20°C° 0 mm 1 m/s 714 mmHg 70%
    03:00 +19°C° 0 mm 1 m/s 714 mmHg 70%
    04:00 +20°C° 0 mm 1 m/s 714 mmHg 68%
    05:00 +21°C° 0 mm 1 m/s 714 mmHg 67%
    06:00 +23°C° 0 mm 1 m/s 714 mmHg 65%
    07:00 +25°C° 0 mm 1 m/s 714 mmHg 57%
    08:00 +26°C° 0 mm 0 m/s 715 mmHg 50%
    09:00 +28°C° 0 mm 0 m/s 715 mmHg 42%
    10:00 +30°C° 0 mm 0 m/s 715 mmHg 39%
    11:00 +33°C° 0 mm 1 m/s 715 mmHg 36%
    12:00 +35°C° 0 mm 1 m/s 715 mmHg 33%
    13:00 +35°C° 0 mm 1 m/s 715 mmHg 34%
    14:00 +35°C° 0 mm 1 m/s 714 mmHg 34%
    15:00 +36°C° 0 mm 2 m/s 714 mmHg 35%
    16:00 +33°C° 0 mm 1 m/s 714 mmHg 43%
    17:00 +32°C° 0 mm 1 m/s 714 mmHg 51%
    18:00 +30°C° 0 mm 1 m/s 714 mmHg 59%
    19:00 +28°C° 0 mm 1 m/s 714 mmHg 61%
    20:00 +26°C° 0 mm 1 m/s 715 mmHg 64%
    21:00 +24°C° 0 mm 1 m/s 715 mmHg 66%
    22:00 +24°C° 0 mm 1 m/s 715 mmHg 69%
    23:00 +23°C° 0 mm 1 m/s 715 mmHg 72%

    30 Iunie, Duminică

    Timp Temperatura Precipitaţii Vânt Presiune Umiditate
    00:00 +23°C° 0 mm 2 m/s 715 mmHg 74%
    01:00 +23°C° 0 mm 1 m/s 715 mmHg 76%
    02:00 +22°C° 0 mm 1 m/s 715 mmHg 77%
    03:00 +22°C° 0 mm 1 m/s 715 mmHg 78%
    04:00 +23°C° 0 mm 1 m/s 715 mmHg 78%
    05:00 +24°C° 0 mm 1 m/s 715 mmHg 77%
    06:00 +23°C° 0 mm 0 m/s 716 mmHg 77%
    07:00 +25°C° 0 mm 0 m/s 716 mmHg 70%
    08:00 +27°C° 0 mm 0 m/s 716 mmHg 63%
    09:00 +31°C° 0 mm 1 m/s 717 mmHg 56%
    10:00 +32°C° 0 mm 1 m/s 716 mmHg 52%
    11:00 +33°C° 0 mm 1 m/s 716 mmHg 48%
    12:00 +35°C° 0 mm 1 m/s 716 mmHg 45%
    13:00 +36°C° 0 mm 2 m/s 716 mmHg 44%
    14:00 +36°C° 0 mm 2 m/s 716 mmHg 44%
    15:00 +36°C° 0 mm 2 m/s 716 mmHg 44%
    16:00 +35°C° 0 mm 2 m/s 716 mmHg 50%
    17:00 +33°C° 0 mm 1 m/s 716 mmHg 57%
    18:00 +32°C° 0 mm 1 m/s 716 mmHg 63%
    19:00 +30°C° 0 mm 1 m/s 716 mmHg 67%
    20:00 +27°C° 0 mm 1 m/s 716 mmHg 72%
    21:00 +25°C° 0 mm 1 m/s 715 mmHg 76%
    22:00 +24°C° 0 mm 1 m/s 715 mmHg 77%
    23:00 +23°C° 0 mm 1 m/s 715 mmHg 78%
    Arată mai mult